Location: Nelson
(41.2830°S, 173.2830°E)
Time: 07:16:26
(UTC+12:00)

ISS - Pass Details

Date: 23 May 2025
Orbit: 415 x 416 km, 51.6° (Epoch: 16 June)

Event Time Altitude Azimuth Distance (km) Brightness Sun altitude
Exits shadow 06:38:39 12° 219° (SW) 1,410 -1.6 -10.7°
Maximum altitude 06:40:16 16° 188° (S) 1,237 -1.6 -10.4°
Drops below altitude 10° 06:42:25 10° 149° (SSE) 1,532 -0.7 -10.0°
Sets 06:45:12 0° 125° (SE) 2,400 0.6 -9.5°
